TITAN 3A TRANSTAGE R/B, 1001

Orbit data source: Space-Track

TITAN 3A TRANSTAGE R/B, 1001 is space debris in LEO originally from a launch on Thu, 11 Feb 1965 UTC via a TITAN IIIA launch vehicle from the Air Force Eastern Test Range (AFETR). Debris objects in space refer to the collection of defunct objects orbiting the Earth. Examples of debris include non-operational satellites, rocket bodies, and fragments generated from explosions, collisions, or faulty payload assembly.

Loading next visibility...
Identifier
1001, 1965-008A
Orbit
LEO
Country
Flag of USUS
Related business
Manufacturer
Martin Marietta
Mission
Spacecraft
Bus & Motor
TRUSS, Unknown motor
Mass
336 kg wet, 336 kg dry
Launch date (UTC)
1965-02-11 (61 years ago)
Launch vehicle
TITAN IIIA
Launch site
Air Force Eastern Test Range (AFETR)
Object type
Payload
Rocket body
Debris
Shape & HBR
Unknown
Radar Cross Section
Large (>1 m²)

Expand to show TLE details & history
Last TLE update: 10 hours ago

TLE from 10 hours ago
0 TITAN 3A TRANSTAGE R/B
1 01001U 65008A   26126.23959191  .00000013  00000-0  57281-3 0  9997
2 01001  32.1429 207.6202 0017146 111.5051 248.7276  9.90721762217310
Epoch: 2026-05-06T05:45Z
TLE epoch observation values (Epoch: 2026-05-06T05:45:00.741Z)
Latitude
-0.00001°
Longitude
-102.73584°
Altitude
2,783.84 km
Speed
6.596 km/s
True Right ascension
13h 50m 28s
True Declination
0° 00' 00"
Sunlit
Object was in full shadow at epoch
Visualization orbit readout
Latitude
Unknown
Longitude
Unknown
Altitude
Unknown
Speed
Unknown
Apparent Right ascension
Unknown
Apparent Declination
Unknown
Sunlit
N/A
Visualization observer readout
Local Sidereal Time
23:36:09
Azimuth
Unknown
Elevation
Unknown
Doppler factor
Unknown
Orbital elements
Apogee altitude
2,797.641 km
Perigee altitude
2,766.229 km
Semi-major axis
9,160.072 km
Eccentricity
0.00171
Inclination
32.1429°
RAAN
207.6202°
Arg. of periapsis
111.5051°
True anomaly
248.54465°
Mean anomaly
248.7276°
Eccentric anomaly
248.63611°
Mean motion
2.47568 °/min
Orbital period
145.41 mins
BSTAR
0.00057281
Loading maneuver chart data...
Computing Atmospheric mass density...
Loading historical data...
Loading historical data...
Loading historical data...
Loading historical data...
Loading historical data...
Loading historical data...
Loading historical data...
Other satellites on launch #8 in the year 1965 (1965-02-11 UTC)

Documentation

Showing up to 5 results
|